Current weather by "City, St" or "zip code"  
 

Current Conditions: SINTON

Fog/Mist


NULL F

Last Updated on May 26 2024, 01:55 AM CDT
Humidity: %
Wind Speed: mph
Barometer in
Dewpoint: F
Visibility: 6.00 mi
Precip: --
Heat Index: NA
Wind Chill: NA
Current conditions at:

SINTON (KT69)

Lat: 28.03 Lon: 97.55

active severe weather and emergency alerts image image weather storm and storm spotter reports image weather observation monitoring service image
Active
Alerts
Storm Reports Obs
Monitoring

Sign-up For Email & Text Message Weather Alert Notification Services



Advertise Here

Observation History for SINTON


Time Wind
(mph)
Vis
(mi)
Weather Precip (in) Temperature (F) Relative
Humidity
Wind
Chill
(F)
Heat
Index
(F)
Pressure
Air Dwpt altimeter
(in)
sea level
(mb)
Rmks
01:55 AM CDT 6.00 Fog/Mist -- NULL % NA NA M
11:35 PM CDT 10.4 6.00 Fog/Mist -- 82.4 80.6 94% NA 94.1 29.75 1007.5
11:15 PM CDT 11.5 6.00 Fog/Mist -- 82.4 80.6 94% NA 94.1 29.74 1007.1
10:35 PM CDT 10.4 7.00 Clear -- 82.4 80.6 94% NA 94.1 29.74 1007.1
09:35 PM CDT 10.4 7.00 Mostly Clear -- 82.4 78.8 89% NA 92.5 29.74 1007.1
09:15 PM CDT 12.7 7.00 Clear -- 82.4 78.8 89% NA 92.5 29.72 1006.4
08:55 PM CDT 7.00 Clear -- NULL % NA NA M
08:35 PM CDT 10.4 7.00 Mostly Clear -- 82.4 78.8 89% NA 92.5 29.71 1006.1
08:15 PM CDT 13.8 7.00 Clear -- 84.2 78.8 84% NA 96.1 29.71 1006.1
06:35 PM CDT 15.0 7.00 Clear -- 87.8 78.8 75% NA 102.4 29.69 1005.4
06:15 PM CDT 18.4 7.00 Clear -- 87.8 77.0 70% NA 99.9 29.69 1005.4
05:55 PM CDT 8.00 Clear -- NULL % NA NA M
05:35 PM CDT 18.4 8.00 Clear -- 89.6 78.8 71% NA 105.3 29.69 1005.4
04:35 PM CDT 17.3 8.00 Clear -- 89.6 78.8 71% NA 105.3 29.70 1005.8
04:15 PM CDT 18.4 7.00 NULL -- 89.6 78.8 71% NA 105.3 29.71 1006.1
03:35 PM CDT 19.6 7.00 Clear and Windy -- 91.4 78.8 67% NA 107.8 29.73 1006.8
03:15 PM CDT 16.1 7.00 Clear -- 91.4 78.8 67% NA 107.8 29.74 1007.1
02:35 PM CDT 15.0 6.00 Haze -- 91.4 80.6 71% NA 110.8 29.75 1007.5
02:15 PM CDT S 15.0 7.00 Clear -- 91.4 80.6 71% NA 110.8 29.75 1007.5
01:35 PM CDT 16.1 7.00 Clear -- 91.4 78.8 67% NA 107.8 29.76 1007.8
01:15 PM CDT 17.3 7.00 Mostly Clear -- 91.4 80.6 71% NA 110.8 29.76 1007.8
12:35 PM CDT 16.1 7.00 Partly Cloudy -- 91.4 80.6 71% NA 110.8 29.78 1008.5
11:35 AM CDT 16.1 6.00 Haze -- 91.4 80.6 71% NA 110.8 29.79 1008.8
10:35 AM CDT S 12.7 5.00 NULL -- 89.6 80.6 75% NA 108.1 29.80 1009.1

Regional Weather Observation


BEEVILLE MUNI (KBEA)

Cloudy
80.1 F

KENEDY (K2R9)

Cloudy
80.1 F

ROBSTOWN/NUECES (KRBO)

Cloudy
82.4 F

CORPUS CHRISTI (KCRP)

Mostly Cloudy
82.0 F

ORANGE GROVE (KNOG)

Cloudy
NULL F

PORT ARANSAS (KRAS)

Fog/Mist
83.1 F

Advertise Here


Advertise Here